[[{"header":{"parameterUnit":"m.s-1","parameterCategory":1,"la1":30.2991,"la2":30.254,"lo1":-89.0895,"lo2":-89.0444,"dy":0.0017,"dx":0.0017,"nx":28,"ny":28,"refTime":"2025-06-09T03:00:00:Z","depth":0,"parameterNumber":2,"parameterNumberName":"U-component_of_WINDS"},"data":[0,0,0,0,0,0,0,0,0,0,0,0,0,0,0,0,0,0,0,0,0,0,0,0,0,0,0,0,0,0,0,0,0,0,0,0,0,0,0,0,0,0,0,0,0,0,0,0,0,0,0,0,0,0,0,0,0,0,5.2134,5.2136,0,5.2301,5.2303,5.2305,5.2274,5.2271,5.2268,5.2265,5.2436,5.2443,5.245,0,0,0,0,0,0,0,0,0,0,0,0,0,5.1787,5.1793,5.2134,5.2136,5.2138,5.2301,5.2303,5.2305,5.2274,5.227,5.2267,5.2263,5.2433,5.2442,5.2451,0,0,0,0,0,0,0,0,0,0,0,0,0,5.1944,5.1795,5.2134,5.2142,5.2145,5.23,5.2303,5.2306,5.2275,5.227,5.2266,5.2262,5.2431,5.2441,5.2452,5.261,0,0,5.2486,5.2491,0,0,0,0,0,0,0,0,5.1935,5.1957,5.2139,5.2142,5.2145,5.2262,5.2243,5.2408,5.2276,5.2226,5.2265,5.2259,5.2382,5.2396,5.2438,5.2618,5.2625,5.2487,5.2493,5.2498,5.2501,0,0,0,0,0,0,0,5.1924,5.1949,5.22,5.2142,5.2145,5.2137,5.2155,5.2274,5.2327,5.223,5.2228,5.2248,5.2382,5.2427,5.2441,5.2628,5.2486,5.2496,5.2503,5.2507,5.2942,5.2946,0,0,0,0,0,0,5.1911,5.194,5.2195,5.2205,5.2027,5.2147,5.2167,5.2229,5.2325,5.2336,5.2251,5.2246,5.241,5.2428,5.2447,5.2635,5.2498,5.2508,5.2515,5.2937,5.2943,5.2948,0,0,0,0,0,0,5.1903,5.1934,5.2188,5.2072,5.2104,5.2158,5.2228,5.2235,5.2279,5.2342,5.2351,5.2287,5.2408,5.2432,5.2569,5.264,5.2513,5.2523,5.2931,5.2939,5.2945,5.3014,0,0,0,0,0,0,5.1893,5.1931,5.1992,5.2074,5.2111,5.2308,5.2233,5.2241,5.2298,5.2292,5.2378,5.2388,5.2406,5.2552,5.258,5.2653,5.2532,5.2925,5.2934,5.2943,5.3005,5.3022,5.3037,0,0,0,0,0,5.1881,5.2006,5.1996,5.2026,5.2188,5.2312,5.2333,5.2351,5.2304,5.2365,5.2405,5.2385,5.2629,5.2567,5.2597,5.2675,5.292,5.2932,5.2942,5.2998,5.3019,5.3037,0,0,0,0,0,0,5.1932,5.2017,5.2006,5.2161,5.223,5.2306,5.2384,5.2373,5.2456,5.2447,5.2466,5.2486,5.2624,5.2664,5.2593,5.2831,5.2768,5.2785,5.28,5.282,5.2836,5.2822,5.2541,0,0,0,0,0,5.1961,5.2055,5.2124,5.2254,5.2289,5.2331,5.2385,5.2393,5.2465,5.2493,5.2543,5.2613,5.2705,5.2765,5.2854,5.3011,5.3028,5.308,5.3096,5.3109,5.3123,5.3205,5.3228,5.2984,5.2984,5.2984,0,0,5.2022,5.208,5.2139,5.2266,5.2319,5.2415,5.2355,5.246,5.253,5.2509,5.264,5.268,5.2759,5.2906,5.2973,5.2943,5.3194,5.3123,5.3133,5.314,5.3219,5.3242,5.3263,5.2992,5.2991,5.2989,0,0,5.2182,5.2237,5.2349,5.2404,5.2485,5.2512,5.2539,5.2618,5.2642,5.2774,5.2759,5.2844,5.3003,5.3058,5.3107,5.3286,5.3269,5.3314,5.3397,5.3477,5.3496,5.3513,5.3573,5.3595,5.3329,5.3329,5.3329,0,5.2248,5.2391,5.2408,5.2513,5.2568,5.2553,5.2666,5.2718,5.2825,5.2863,5.2828,5.3024,5.3077,5.3235,5.3278,5.332,5.3349,5.3303,5.3492,5.351,5.3526,5.3583,5.3606,5.3334,5.3333,5.3333,5.3332,0,5.2466,5.2566,5.2647,5.2748,5.2813,5.2922,5.2954,5.3017,5.3019,5.3049,5.3181,5.3244,5.3343,5.3381,5.3385,5.3539,5.3517,5.3488,5.3424,5.3553,5.3607,5.363,5.334,5.3338,5.3337,5.3336,0,0,5.2662,5.277,5.28,5.2844,5.2932,5.3009,5.3116,5.3212,5.3264,5.3338,5.3426,5.356,5.3531,5.3587,5.3597,5.3668,5.38,5.3629,5.3631,5.3655,5.3969,5.3989,5.4014,5.3791,5.3795,5.3799,5.3961,0,5.2827,5.3015,5.3033,5.3201,5.3291,5.3277,5.337,5.3433,5.3464,5.3544,5.3578,5.3671,5.3629,5.3662,5.3731,5.3769,5.3863,5.3758,5.3871,5.3874,5.3848,5.4043,5.4065,5.4216,5.3983,5.3987,5.399,0,5.3045,5.3123,5.33,5.3372,5.3411,5.3494,5.3581,5.3659,5.373,5.3747,5.3808,5.3808,5.3916,5.385,5.3997,5.3925,5.3973,5.3998,5.4004,5.4013,5.3938,5.4054,5.4265,5.4286,5.4024,5.4021,5.4019,0,5.3165,5.3316,5.344,5.3479,5.3567,5.3625,5.3665,5.3731,5.3786,5.3863,5.3899,5.3988,5.4036,5.4104,5.4126,5.4077,5.4272,5.4209,5.4287,5.4286,5.4327,5.4323,5.4544,5.4363,5.4362,5.4362,5.4362,0,5.3346,5.3454,5.3494,5.357,5.369,5.3709,5.3826,5.3863,5.3921,5.4003,5.3998,5.4074,5.4101,5.4182,5.4201,5.4318,5.4341,5.4356,5.4359,5.4355,5.4352,5.4383,5.4372,5.4368,5.4367,5.4366,5.4364,0,5.35,5.3532,5.3666,5.3738,5.3758,5.3843,5.3904,5.3976,5.4005,5.4108,5.4134,5.4179,5.4274,5.4303,5.4418,5.4431,5.4566,5.4562,5.4542,5.4541,5.4616,5.4607,5.4863,5.4896,5.4696,5.4698,5.4699,0,5.3612,5.3694,5.3774,5.3828,5.3869,5.3957,5.4013,5.4034,5.4093,5.4178,5.4239,5.4333,5.4408,5.456,5.4602,5.4689,5.4684,5.4768,5.4697,5.4689,5.4681,5.4674,5.4681,5.478,5.4782,5.4784,5.4785,0,5.3805,5.3816,5.3897,5.3983,5.4049,5.4118,5.4184,5.4229,5.426,5.4325,5.4421,5.448,5.4595,5.4687,5.4775,5.4814,5.4804,5.4807,5.4829,5.4824,5.4807,5.4813,5.4574,5.4801,5.4799,5.4798,5.4797,5.4797,5.3939,5.4009,5.4076,5.4165,5.4217,5.4279,5.4349,5.4386,5.4466,5.4561,5.4569,5.4672,5.4738,5.4855,5.4899,5.4978,5.4954,5.4987,5.4995,5.5002,5.5006,5.4797,5.4995,5.4995,5.4994,5.4994,5.4994,0,5.4128,5.417,5.4252,5.4344,5.4413,5.4398,5.447,5.4529,5.4619,5.4682,5.4755,5.4864,5.4952,5.5001,5.5089,5.5143,5.514,5.5165,5.516,5.5168,5.5024,5.4995,5.5166,5.5165,5.5165,5.5165,5.5165,5.5165,5.4235,5.4352,5.4371,5.4514,5.4555,5.4655,5.4696,5.4752,5.4801,5.4923,5.4996,5.5027,5.5083,5.5174,5.5254,5.5266,5.5297,5.5324,5.5332,5.5197,5.5179,5.5162,5.5134,5.5331,5.5331,5.5469,5.547,5.5471]},{"header":{"parameterUnit":"m.s-1","parameterCategory":1,"la1":30.2991,"la2":30.254,"lo1":-89.0895,"lo2":-89.0444,"dy":0.0017,"dx":0.0017,"nx":28,"ny":28,"refTime":"2025-06-09T03:00:00:Z","depth":0,"parameterNumber":3,"parameterNumberName":"V-component_of_WINDS"},"data":[0,0,0,0,0,0,0,0,0,0,0,0,0,0,0,0,0,0,0,0,0,0,0,0,0,0,0,0,0,0,0,0,0,0,0,0,0,0,0,0,0,0,0,0,0,0,0,0,0,0,0,0,0,0,0,0,0,0,2.8766,2.8767,0,2.8852,2.8853,2.8854,2.8833,2.8832,2.883,2.8828,2.8916,2.8919,2.8923,0,0,0,0,0,0,0,0,0,0,0,0,0,2.8581,2.8584,2.8766,2.8767,2.8768,2.8852,2.8853,2.8855,2.8834,2.8832,2.883,2.8828,2.8914,2.8919,2.8923,0,0,0,0,0,0,0,0,0,0,0,0,0,2.8663,2.8585,2.8766,2.8768,2.8769,2.8852,2.8853,2.8855,2.8834,2.8832,2.8829,2.8827,2.8913,2.8918,2.8924,2.901,0,0,2.8942,2.8944,0,0,0,0,0,0,0,0,2.8659,2.867,2.8767,2.8768,2.8769,2.883,2.882,2.8907,2.8835,2.8809,2.8828,2.8826,2.8889,2.8896,2.8918,2.9014,2.9018,2.8942,2.8946,2.8948,2.895,0,0,0,0,0,0,0,2.8653,2.8666,2.88,2.8768,2.877,2.8764,2.8773,2.8836,2.8862,2.8811,2.881,2.8821,2.8889,2.8913,2.892,2.9019,2.8942,2.8947,2.8951,2.8953,2.9188,2.919,0,0,0,0,0,0,2.8646,2.8662,2.8797,2.8803,2.8707,2.8769,2.8779,2.8813,2.8861,2.8866,2.8823,2.8819,2.8904,2.8913,2.8923,2.9026,2.8948,2.8954,2.8957,2.9185,2.9188,2.9191,0,0,0,0,0,0,2.8642,2.8659,2.8794,2.8732,2.8749,2.8775,2.8813,2.8816,2.8839,2.887,2.8874,2.8842,2.8902,2.8915,2.8988,2.9029,2.8956,2.8962,2.9182,2.9186,2.919,2.9233,0,0,0,0,0,0,2.8637,2.8657,2.8691,2.8733,2.8752,2.8859,2.8815,2.8819,2.8849,2.8846,2.8889,2.8894,2.8901,2.898,2.8994,2.9035,2.8966,2.9178,2.9184,2.9189,2.9228,2.9238,2.9246,0,0,0,0,0,2.8631,2.87,2.8693,2.8709,2.8795,2.8861,2.8872,2.8879,2.8853,2.8886,2.8906,2.8893,2.9022,2.8987,2.9003,2.9047,2.9176,2.9182,2.9188,2.9224,2.9236,2.9246,0,0,0,0,0,0,2.8662,2.8705,2.8698,2.8783,2.8819,2.8857,2.89,2.8892,2.8936,2.8931,2.8937,2.8947,2.9022,2.9042,2.9003,2.9131,2.9095,2.9104,2.9116,2.9128,2.9137,2.9131,2.8971,0,0,0,0,0,2.8679,2.873,2.8764,2.8836,2.8854,2.8874,2.8903,2.8906,2.8942,2.8957,2.8982,2.9018,2.9066,2.9098,2.9144,2.923,2.9239,2.9268,2.9277,2.9284,2.9293,2.9338,2.9351,2.9212,2.9212,2.9211,0,0,2.8714,2.8744,2.8776,2.8843,2.8871,2.8922,2.8887,2.8943,2.8981,2.8966,2.9037,2.9056,2.9096,2.9175,2.9212,2.9194,2.9333,2.9292,2.9298,2.9302,2.9346,2.9359,2.9371,2.9216,2.9215,2.9214,0,0,2.8805,2.8833,2.8895,2.8923,2.8966,2.8978,2.8993,2.9033,2.9045,2.9116,2.9105,2.915,2.9234,2.9262,2.9288,2.9387,2.9376,2.9402,2.9451,2.9495,2.9506,2.9515,2.955,2.9563,2.941,2.941,2.941,0,2.8843,2.8922,2.8928,2.8985,2.9014,2.9002,2.9064,2.9091,2.9147,2.9167,2.9146,2.925,2.9276,2.9362,2.9386,2.9407,2.9423,2.9398,2.9504,2.9514,2.9523,2.9556,2.9569,2.9413,2.9413,2.9412,2.9412,0,2.8966,2.902,2.9065,2.9119,2.9153,2.9212,2.9227,2.926,2.9259,2.9273,2.9345,2.9376,2.9428,2.9448,2.9448,2.9533,2.9521,2.9502,2.9465,2.9539,2.957,2.9583,2.9417,2.9416,2.9415,2.9415,0,0,2.9081,2.9136,2.9152,2.9176,2.9221,2.9262,2.932,2.9371,2.9399,2.9437,2.9485,2.9556,2.9538,2.9567,2.9569,2.9608,2.9684,2.9584,2.9585,2.9602,2.9779,2.9793,2.9807,2.9677,2.9679,2.9681,2.9775,0,2.9175,2.9278,2.9285,2.9377,2.9427,2.9415,2.9465,2.9498,2.9512,2.9555,2.9571,2.962,2.9594,2.9611,2.9649,2.9667,2.9719,2.966,2.9721,2.9723,2.9711,2.9824,2.9839,2.9927,2.9787,2.979,2.9791,0,2.9299,2.9341,2.9439,2.9476,2.9496,2.9542,2.9588,2.963,2.9666,2.9673,2.9705,2.9701,2.9759,2.972,2.98,2.9759,2.9784,2.9796,2.98,2.9806,2.9762,2.9833,2.9955,2.9968,2.9811,2.9809,2.9808,0,2.9372,2.9453,2.9521,2.9542,2.9587,2.9618,2.9638,2.9672,2.9701,2.9741,2.976,2.9806,2.9832,2.9867,2.9875,2.9846,2.9955,2.9916,2.9962,2.9962,2.9986,2.9984,3.0114,3.0002,3.0002,3.0002,3.0001,0,2.9477,2.9537,2.9555,2.9597,2.9663,2.9669,2.9735,2.9752,2.9782,2.9827,2.9819,2.9861,2.9869,2.9913,2.992,2.9984,2.9995,3.0003,3.0004,3.0003,3.0003,3.002,3.0014,3.0005,3.0004,3.0004,3.0003,0,2.957,2.9584,2.9658,2.9694,2.9704,2.9752,2.9782,2.9822,2.9835,2.9891,2.9905,2.9925,2.9975,2.9987,3.0047,3.0051,3.0127,3.0123,3.0115,3.0115,3.016,3.0155,3.0305,3.0325,3.02,3.0202,3.0203,0,2.9636,2.9682,2.9723,2.9752,2.9774,2.9821,2.9851,2.9858,2.989,2.9933,2.9967,3.0017,3.0057,3.0138,3.0157,3.0202,3.0199,3.0248,3.0205,3.0203,3.0199,3.0196,3.02,3.0256,3.0257,3.0258,3.0259,0,2.9752,2.9756,2.98,2.9846,2.9882,2.9919,2.9953,2.9978,2.9989,3.0024,3.0076,3.0107,3.0168,3.0217,3.0262,3.0281,3.0272,3.0272,3.0285,3.0286,3.0279,3.0283,3.0137,3.0269,3.0268,3.0267,3.0267,3.0266,2.9833,2.9873,2.9908,2.9956,2.9983,3.0015,3.0054,3.0072,3.0115,3.0165,3.0166,3.0222,3.0255,3.0315,3.0337,3.038,3.0365,3.0383,3.0388,3.0393,3.0397,3.0272,3.0388,3.0388,3.0388,3.0387,3.0387,0,2.9948,2.9969,3.0014,3.0063,3.0101,3.0089,3.0126,3.0158,3.0208,3.0239,3.0279,3.0337,3.0384,3.0406,3.0452,3.0482,3.0479,3.0494,3.0492,3.0497,3.0408,3.0392,3.0496,3.0496,3.0496,3.0496,3.0496,3.0496,3.0012,3.0079,3.0087,3.0166,3.0187,3.0242,3.0264,3.0293,3.0318,3.0384,3.0423,3.0437,3.0465,3.0513,3.0555,3.056,3.0577,3.0594,3.0597,3.0514,3.0503,3.0492,3.0477,3.0598,3.0598,3.0682,3.0683,3.0684]}]]